Regional Weather Roundup
Issued by NWS Charleston, SC

Home | Current Version | Previous Version | Text Only | Print | Product List | Glossary On
Versions: 1 2 3 4 5 6 7 8 9 10 11 12 13 14 15 16 17 18 19 20 21 22 23 24 25 26 27 28 29 30 31 32 33 34 35 36 37 38 39 40 41 42 43 44 45 46 47 48 49 50
000
ASUS42 KCHS 211525
RWRCHS

REGIONAL WEATHER ROUNDUP
NATIONAL WEATHER SERVICE CHARLESTON SC
1100 AM EDT MON APR 21 2014

NOTE: "FAIR" INDICATES FEW OR NO CLOUDS BELOW 12,000 FEET WITH NO
SIGNIFICANT WEATHER AND/OR OBSTRUCTIONS TO VISIBILITY.

NOT ALL STATIONS ARE QUALITY CONTROLLED BY THE NATIONAL
WEATHER SERVICE. USE DATA WITH CAUTION...ESPECIALLY
DEWPOINT OBSERVATIONS.

SCZ027-030-031-034>040-042>050-211600-
...SOUTH CAROLINA...

CITY           SKY/WX    TMP DP  RH WIND       PRES   REMARKS
N CHARLESTON   SUNNY     68  50  52 N13       30.10S
WATERFRONT PRK   N/A     63 N/A N/A N15         N/A
FORT JOHNSON     N/A     61  54  77 N14       30.13S
MOUNT PLEASANT FAIR     N/A N/A N/A N9        30.08S
JOHNS ISLAND   SUNNY     68  54  60 N13       30.08F
PINOPOLIS        N/A     61  52  72 VRB10     30.05S
MONCKS CORNER  FAIR      64  55  72 N8        30.11S
SUMMERVILLE    NOT AVBL
BEAUFORT MCAS  MOSUNNY   68  51  54 NE10      30.11S
BEAUFORT ARPT  FAIR      68  54  60 N9        30.10S
HILTON HEAD IS SUNNY     66  50  55 NW8G16    30.12R
GEORGETOWN     NOT AVBL
WALTERBORO     SUNNY     66  50  55 N8        30.12F
ORANGEBURG     SUNNY     63  44  50 NE8       30.14F
BARNWELL       FAIR      66  45  45 N8        30.15S
AIKEN          FAIR      64  41  42 NE9       30.18F
MANNING        FAIR      64  50  59 N8        30.12F
KINGSTREE      NOT AVBL
COLUMBIA       MOSUNNY   63  41  44 NE7       30.15F
SUMTER         SUNNY     62  46  55 NE10      30.13F
FLORENCE       SUNNY     62  46  55 NE9       30.13S
MYRTLE BEACH   SUNNY     63  50  63 N17       30.07S
N MYRTLE BEACH SUNNY     63  52  67 N16G22    30.07S

$$

GAZ063-065-086>088-099>101-113>116-118-119-134-136>141-150-211600-
...GEORGIA...

CITY           SKY/WX    TMP DP  RH WIND       PRES   REMARKS
SAVANNAH ARPT  MOSUNNY   69  52  54 N9        30.11F
HUNTER AAF     SUNNY     68  53  59 N7        30.09S
FORT STEWART   SUNNY     68  56  67 NW8       30.10F
STATESBORO     NOT AVBL
SYLVANIA       SUNNY     69  49  49 NE8       30.14S
CLAXTON        FAIR      70  54  56 NE6       30.13F
THOMSON        SUNNY     63  44  49 N6        30.21F
AUGUSTA-BUSH   SUNNY     65  40  39 N7        30.16F
AUGUSTA-DANIEL SUNNY     64  41  42 N7        30.17F
SWAINSBORO     FAIR      66  46  48 N6        30.15F
VIDALIA        SUNNY     68  50  52 E8        30.14F
ALMA           SUNNY     68  51  54 VRB3      30.13S
WAYCROSS       NOT AVBL
JESUP          FAIR      64  55  72 N6        30.12F
BRUNSWICK      SUNNY     68  55  64 N3        30.12S
SAINT SIMONS   SUNNY     67  54  63 N9        30.11R

$$

SCZ027-028-034-036>038-045-046-048>050-GAZ119-141-211600-
...LAKE AND SUPPLEMENTAL COASTAL OBSERVATIONS...

STATION/POSITION TIME  TEMP    WIND        PRES    WAVE   SWELL
                       AIR SEA DIR/SP/G            HT/PER HT/PER/DIR
                 (UTC) (F)     (DEG/KT/KT) (MB)    (FT/S) (FT/S/D)
UPR LAKE MARION  NOT AVBL
WINYAH BAY       1500   63     360/  8     1018.0S
LAKE MURRAY      1400   60      30/  2/  5 1021.0F
ACE BASIN NERRS  1500   66      10/  5     1019.0S
FORT PULASKI     1500   64 58  360/ 10/ 13 1019.7S
SAPELO ISLAND    1500   66      10/ 11     1020.0S

$$

ANZ835-935-AMZ111-154-330-350-352-354-374-450-454-472-211600-
...C-MAN AND BUOY OBSERVATIONS...

STATION/POSITION TIME  TEMP    WIND        PRES    WAVE   SWELL
                       AIR SEA DIR/SP/G            HT/PER HT/PER/DIR
                 (UTC) (F)     (DEG/KT/KT) (MB)    (FT/S) (FT/S/D)
FOLLY BEACH CMAN 1500   65     340/  9/ 13 1019.1S
BUOY 41004       NOT AVBL
BUOY 41008       1500   61 63   10/ 16/ 17 1019.0R   5/ 6   3/ 90/ 9
5E ST. MARYS GA  1500      64                N/A     5/11   2/ 80/11
FRYING PAN BUOY  1500   58 68   20/ 23/ 27 1015.5R   9/ 8   3/ 90/11
BUOY 41025       1500   56 74  360/ 29/ 35 1014.3R  11/10   8/ 60/10
CAPE LOOKOUT NC  1500   56      10/ 20/ 23 1016.3R
BUOY 41002       NOT AVBL
BUOY 41010       1500   72 74  350/ 19/ 23 1014.5S  10/11   7/ 10/11
BUOY 41012       NOT AVBL
ST AUGUSTINE FL  1500   62     360/ 14/ 15 1019.8R
CAPERS NEARSHORE NOT AVBL
FRIPP NEARSHORE  1400   61      10/ 14/ 16   N/A


$$



USA.gov is the U.S. government's official web portal to all federal, state and local government web resources and services.